Location: Alvediston
(51.0078°N, 2.0364°W)
Time: 22:44:49
(UTC+00:00)

STARLINK-80 - Pass Details

Date: 27 February 2020
Orbit: 489 x 494 km, 53.0° (Epoch: 05 April)

Event Time Altitude Azimuth Distance (km) Brightness Sun altitude
Rises 19:15:36 0° 289° (WNW) 2,585 8.7 -15.1°
Reaches altitude 10° 19:17:48 10° 287° (WNW) 1,700 7.4 -15.4°
Maximum altitude 19:21:37 66° 205° (SSW) 546 3.6 -16.0°
Enters shadow 19:23:22 29° 132° (SE) 923 4.3 -16.3°
